EWG5LB EDDV-LIMC

Flight info

Callsign EWG5LB
Flight time 1h 13m
Altitude 36000
Route NORTA1Y NORTA P605 WERRA DCT LAMOP DCT SWALM DCT SOGMI DCT BOMBI DCT GIGET DCT ABUKA/N0456F350 DCT BANUX/N0456F360 DCT KRH DCT NATOR/N0457F350 DCT TRA DCT RIPUS DCT GERSA DCT SOSON DCT DEGAD Z424 BASGO/N0439F290 Z424 AKASU/N0376F190 Z424 RIXUV
Aircraft A21N/M-SDE2E3FGHIRWXY/LB1

Departure

Time 2026-05-06 20:10
Airport Hannover Airport (EDDV)

Arrival

Time 2026-05-06 21:24
Airport Milan Malpensa International Airport (LIMC)
Time Latitude Longitude Altitude Speed Heading
2026-05-06 19:52 52.45839 9.69313 184 ft 0 kts 47°
2026-05-06 19:59 52.45832 9.69300 184 ft 4 kts 47°
2026-05-06 20:00 52.45816 9.69271 184 ft 4 kts 45°
2026-05-06 20:00 52.45796 9.69251 190 ft 4 kts 360°
2026-05-06 20:00 52.45774 9.69265 198 ft 4 kts 314°
2026-05-06 20:00 52.45761 9.69300 199 ft 4 kts 281°
2026-05-06 20:01 52.45759 9.69312 198 ft 0 kts 272°
2026-05-06 20:03 52.45759 9.69309 198 ft 1 kts 272°
2026-05-06 20:03 52.45760 9.69286 201 ft 3 kts 278°
2026-05-06 20:03 52.45777 9.69244 196 ft 6 kts 316°
2026-05-06 20:03 52.45814 9.69199 191 ft 8 kts 323°
2026-05-06 20:04 52.45864 9.69136 188 ft 10 kts 323°
2026-05-06 20:04 52.45928 9.69057 184 ft 13 kts 323°
2026-05-06 20:04 52.46004 9.68963 189 ft 15 kts 323°
2026-05-06 20:04 52.46092 9.68854 181 ft 17 kts 322°
2026-05-06 20:05 52.46190 9.68730 184 ft 19 kts 322°
2026-05-06 20:05 52.46298 9.68594 189 ft 20 kts 322°
2026-05-06 20:05 52.46416 9.68446 184 ft 22 kts 323°
2026-05-06 20:05 52.46513 9.68254 184 ft 23 kts 285°
2026-05-06 20:06 52.46526 9.67993 184 ft 24 kts 272°
2026-05-06 20:06 52.46534 9.67716 184 ft 25 kts 272°
2026-05-06 20:06 52.46542 9.67426 184 ft 26 kts 272°
2026-05-06 20:06 52.46550 9.67125 184 ft 27 kts 272°
2026-05-06 20:07 52.46558 9.66812 184 ft 28 kts 272°
2026-05-06 20:07 52.46568 9.66486 183 ft 29 kts 273°
2026-05-06 20:07 52.46577 9.66168 184 ft 22 kts 272°
2026-05-06 20:07 52.46583 9.65935 184 ft 21 kts 272°
2026-05-06 20:08 52.46589 9.65695 184 ft 22 kts 272°
2026-05-06 20:08 52.46595 9.65441 184 ft 23 kts 275°
2026-05-06 20:08 52.46650 9.65192 183 ft 24 kts 295°
2026-05-06 20:08 52.46718 9.64948 183 ft 19 kts 294°
2026-05-06 20:09 52.46768 9.64842 183 ft 9 kts 344°
2026-05-06 20:09 52.46814 9.64840 183 ft 6 kts
2026-05-06 20:09 52.46836 9.64872 183 ft 6 kts 91°
2026-05-06 20:09 52.46833 9.64974 181 ft 22 kts 93°
2026-05-06 20:10 52.46816 9.65595 178 ft 86 kts 92°
2026-05-06 20:10 52.46781 9.66858 182 ft 137 kts 92°
2026-05-06 20:10 52.46729 9.68613 363 ft 159 kts 89°
2026-05-06 20:10 52.46690 9.70404 931 ft 159 kts 88°
2026-05-06 20:11 52.46659 9.72214 1534 ft 162 kts 89°
2026-05-06 20:11 52.46603 9.74123 2017 ft 175 kts 89°
2026-05-06 20:11 52.46536 9.76200 2561 ft 190 kts 89°
2026-05-06 20:11 52.46465 9.78431 3211 ft 200 kts 90°
2026-05-06 20:12 52.46393 9.80742 3926 ft 206 kts 91°
2026-05-06 20:12 52.46316 9.83122 4664 ft 212 kts 91°
2026-05-06 20:12 52.46241 9.85547 5422 ft 214 kts 91°
2026-05-06 20:12 52.46163 9.88014 6182 ft 219 kts 94°
2026-05-06 20:13 52.45760 9.90391 6893 ft 224 kts 119°
2026-05-06 20:13 52.44689 9.92261 7624 ft 230 kts 147°
2026-05-06 20:13 52.43165 9.93099 8370 ft 235 kts 174°
2026-05-06 20:13 52.41523 9.93064 9122 ft 238 kts 187°
2026-05-06 20:14 52.39829 9.92575 9543 ft 257 kts 191°
2026-05-06 20:14 52.37999 9.92003 9908 ft 277 kts 190°
2026-05-06 20:14 52.36027 9.91415 10262 ft 299 kts 190°
2026-05-06 20:14 52.33906 9.90811 10565 ft 321 kts 190°
2026-05-06 20:15 52.31635 9.90182 10847 ft 341 kts 191°
2026-05-06 20:15 52.29264 9.89538 11111 ft 359 kts 190°
2026-05-06 20:15 52.26748 9.88864 11427 ft 373 kts 190°
2026-05-06 20:15 52.24162 9.88234 12018 ft 378 kts 188°
2026-05-06 20:16 52.21537 9.87708 12670 ft 382 kts 188°
2026-05-06 20:16 52.18887 9.87196 13300 ft 386 kts 188°
2026-05-06 20:16 52.16214 9.86678 13900 ft 389 kts 188°
2026-05-06 20:16 52.13516 9.86155 14400 ft 392 kts 188°
2026-05-06 20:17 52.10800 9.85628 14911 ft 394 kts 188°
2026-05-06 20:17 52.08110 9.85105 15394 ft 396 kts 188°
2026-05-06 20:17 52.05371 9.84573 15894 ft 397 kts 188°
2026-05-06 20:17 52.02621 9.84038 16387 ft 399 kts 188°
2026-05-06 20:18 51.99851 9.83501 16844 ft 402 kts 188°
2026-05-06 20:18 51.97065 9.82961 17305 ft 405 kts 188°
2026-05-06 20:18 51.94260 9.82417 17763 ft 407 kts 188°
2026-05-06 20:18 51.91434 9.81867 18215 ft 411 kts 188°
2026-05-06 20:19 51.88585 9.81312 18609 ft 414 kts 188°
2026-05-06 20:19 51.85722 9.80759 18993 ft 416 kts 188°
2026-05-06 20:19 51.82880 9.80214 19408 ft 417 kts 188°
2026-05-06 20:19 51.79990 9.79662 19784 ft 419 kts 188°
2026-05-06 20:20 51.77087 9.79109 20137 ft 422 kts 188°
2026-05-06 20:20 51.74159 9.78552 20501 ft 425 kts 188°
2026-05-06 20:20 51.71217 9.77991 20869 ft 428 kts 188°
2026-05-06 20:20 51.68249 9.77427 21213 ft 431 kts 188°
2026-05-06 20:21 51.65267 9.76859 21578 ft 434 kts 188°
2026-05-06 20:21 51.62259 9.76285 21963 ft 436 kts 188°
2026-05-06 20:21 51.59279 9.75719 22369 ft 438 kts 188°
2026-05-06 20:21 51.56242 9.75144 22759 ft 441 kts 188°
2026-05-06 20:22 51.53185 9.74568 23160 ft 444 kts 188°
2026-05-06 20:22 51.50110 9.73988 23528 ft 447 kts 188°
2026-05-06 20:22 51.47032 9.73245 23899 ft 447 kts 194°
2026-05-06 20:22 51.44053 9.71828 24290 ft 447 kts 200°
2026-05-06 20:23 51.41114 9.70189 24673 ft 448 kts 201°
2026-05-06 20:23 51.38176 9.68524 25059 ft 448 kts 200°
2026-05-06 20:23 51.35246 9.66876 25547 ft 445 kts 200°
2026-05-06 20:23 51.32333 9.65252 26067 ft 442 kts 200°
2026-05-06 20:24 51.29471 9.63659 26554 ft 440 kts 200°
2026-05-06 20:24 51.26589 9.62064 27028 ft 438 kts 200°
2026-05-06 20:24 51.23718 9.60477 27504 ft 436 kts 200°
2026-05-06 20:24 51.20862 9.58896 27972 ft 434 kts 200°
2026-05-06 20:25 51.18013 9.57319 28433 ft 432 kts 199°
2026-05-06 20:25 51.15177 9.55757 28835 ft 432 kts 199°
2026-05-06 20:25 51.12339 9.54196 29249 ft 431 kts 199°
2026-05-06 20:25 51.09512 9.52647 29696 ft 429 kts 199°
2026-05-06 20:26 51.06693 9.51101 30108 ft 427 kts 199°
2026-05-06 20:26 51.03890 9.49559 30469 ft 426 kts 199°
2026-05-06 20:26 51.01133 9.48047 30830 ft 424 kts 199°
2026-05-06 20:26 50.98393 9.46312 31146 ft 425 kts 206°
2026-05-06 20:27 50.95816 9.44008 31422 ft 425 kts 211°
2026-05-06 20:27 50.93298 9.41542 31696 ft 426 kts 211°
2026-05-06 20:27 50.90786 9.39061 32017 ft 425 kts 211°
2026-05-06 20:27 50.88271 9.36600 32363 ft 424 kts 211°
2026-05-06 20:28 50.85755 9.34157 32687 ft 424 kts 211°
2026-05-06 20:28 50.83244 9.31727 33017 ft 423 kts 211°
2026-05-06 20:28 50.80737 9.29309 33312 ft 422 kts 211°
2026-05-06 20:28 50.78273 9.26933 33596 ft 421 kts 211°
2026-05-06 20:29 50.75769 9.24524 33820 ft 422 kts 211°
2026-05-06 20:29 50.73269 9.22097 33851 ft 422 kts 213°
2026-05-06 20:29 50.68852 9.16053 33837 ft 422 kts 225°
2026-05-06 20:30 50.62751 9.06061 33822 ft 422 kts 225°
2026-05-06 20:31 50.58676 8.99501 33823 ft 422 kts 225°
2026-05-06 20:31 50.54450 8.93121 33825 ft 421 kts 216°
2026-05-06 20:31 50.51961 8.90727 33822 ft 420 kts 205°
2026-05-06 20:32 50.49209 8.89191 33824 ft 421 kts 194°
2026-05-06 20:32 50.43414 8.87855 33832 ft 421 kts 188°
2026-05-06 20:33 50.37603 8.86705 33830 ft 421 kts 188°
2026-05-06 20:33 50.31791 8.85498 33838 ft 421 kts 188°
2026-05-06 20:34 50.26018 8.84289 33845 ft 422 kts 188°
2026-05-06 20:34 50.23105 8.83678 33963 ft 421 kts 188°
2026-05-06 20:34 50.20216 8.83074 34232 ft 419 kts 188°
2026-05-06 20:34 50.17324 8.82465 34358 ft 421 kts 188°
2026-05-06 20:35 50.14414 8.81858 34290 ft 422 kts 188°
2026-05-06 20:35 50.11503 8.81257 34112 ft 422 kts 188°
2026-05-06 20:35 50.08633 8.80660 33920 ft 421 kts 188°
2026-05-06 20:35 50.05732 8.80059 33817 ft 422 kts 188°
2026-05-06 20:36 50.02818 8.79446 33818 ft 423 kts 188°
2026-05-06 20:36 49.96984 8.78229 33845 ft 423 kts 188°
2026-05-06 20:37 49.91153 8.77016 33844 ft 423 kts 188°
2026-05-06 20:37 49.85316 8.75814 33855 ft 423 kts 188°
2026-05-06 20:38 49.79497 8.74624 33849 ft 425 kts 188°
2026-05-06 20:38 49.73639 8.73418 33853 ft 425 kts 188°
2026-05-06 20:39 49.67781 8.72206 33870 ft 425 kts 188°
2026-05-06 20:39 49.61917 8.71033 33869 ft 426 kts 187°
2026-05-06 20:40 49.56076 8.69856 33871 ft 426 kts 188°
2026-05-06 20:40 49.50192 8.68674 33872 ft 426 kts 188°
2026-05-06 20:41 49.44294 8.67834 33879 ft 426 kts 182°
2026-05-06 20:41 49.38340 8.67621 33874 ft 429 kts 182°
2026-05-06 20:42 49.32368 8.67402 33862 ft 429 kts 182°
2026-05-06 20:42 49.26435 8.67180 33859 ft 430 kts 182°
2026-05-06 20:43 49.20460 8.66959 33847 ft 429 kts 182°
2026-05-06 20:43 49.14488 8.66740 33851 ft 429 kts 182°
2026-05-06 20:44 49.08652 8.65124 33847 ft 428 kts 201°
2026-05-06 20:44 49.03279 8.61358 33849 ft 428 kts 205°
2026-05-06 20:45 48.97773 8.57949 33850 ft 428 kts 195°
2026-05-06 20:45 48.91946 8.56014 33854 ft 429 kts 192°
2026-05-06 20:46 48.86103 8.54162 33850 ft 429 kts 192°
2026-05-06 20:46 48.80300 8.52293 33860 ft 429 kts 192°
2026-05-06 20:47 48.74468 8.50418 33870 ft 429 kts 193°
2026-05-06 20:47 48.68623 8.48539 33871 ft 429 kts 193°
2026-05-06 20:48 48.62775 8.46667 33866 ft 430 kts 193°
2026-05-06 20:48 48.56968 8.44804 33870 ft 429 kts 193°
2026-05-06 20:49 48.51121 8.42938 33883 ft 429 kts 193°
2026-05-06 20:49 48.45273 8.41072 33881 ft 429 kts 193°
2026-05-06 20:50 48.39428 8.39216 33885 ft 430 kts 193°
2026-05-06 20:50 48.33617 8.37370 33896 ft 430 kts 193°
2026-05-06 20:51 48.27769 8.35523 33892 ft 429 kts 193°
2026-05-06 20:51 48.21922 8.33690 33901 ft 429 kts 193°
2026-05-06 20:52 48.16003 8.32501 33907 ft 432 kts 180°
2026-05-06 20:52 48.10070 8.33728 33907 ft 434 kts 172°
2026-05-06 20:53 48.04120 8.35249 33910 ft 434 kts 173°
2026-05-06 20:53 47.98167 8.36703 33923 ft 434 kts 173°
2026-05-06 20:54 47.92207 8.38141 33924 ft 434 kts 173°
2026-05-06 20:54 47.86293 8.39560 33931 ft 433 kts 173°
2026-05-06 20:55 47.80341 8.40987 33936 ft 433 kts 173°
2026-05-06 20:55 47.74392 8.42411 33939 ft 433 kts 173°
2026-05-06 20:56 47.68462 8.43772 33921 ft 428 kts 176°
2026-05-06 20:56 47.62603 8.44658 33952 ft 426 kts 178°
2026-05-06 20:57 47.56708 8.45517 33957 ft 426 kts 178°
2026-05-06 20:57 47.50811 8.46381 33958 ft 426 kts 178°
2026-05-06 20:58 47.44932 8.47236 33955 ft 424 kts 178°
2026-05-06 20:58 47.39093 8.48094 33956 ft 424 kts 178°
2026-05-06 20:59 47.33221 8.48947 33944 ft 424 kts 178°
2026-05-06 20:59 47.27346 8.49805 33937 ft 424 kts 178°
2026-05-06 21:00 47.21471 8.50658 33947 ft 424 kts 178°
2026-05-06 21:00 47.15598 8.51515 33948 ft 424 kts 178°
2026-05-06 21:01 47.09761 8.52366 33945 ft 424 kts 178°
2026-05-06 21:01 47.03898 8.53216 33939 ft 421 kts 178°
2026-05-06 21:02 46.98064 8.54057 33954 ft 420 kts 178°
2026-05-06 21:02 46.92243 8.54901 33956 ft 421 kts 178°
2026-05-06 21:03 46.86457 8.55734 33969 ft 420 kts 178°
2026-05-06 21:03 46.80665 8.56559 33937 ft 418 kts 179°
2026-05-06 21:03 46.77741 8.56978 33570 ft 425 kts 179°
2026-05-06 21:04 46.74810 8.57404 33140 ft 421 kts 179°
2026-05-06 21:04 46.71900 8.57820 32653 ft 420 kts 179°
2026-05-06 21:04 46.68994 8.58236 32111 ft 420 kts 179°
2026-05-06 21:04 46.66088 8.58649 31607 ft 419 kts 179°
2026-05-06 21:05 46.63223 8.59057 31079 ft 420 kts 179°
2026-05-06 21:05 46.60315 8.59472 30580 ft 420 kts 179°
2026-05-06 21:05 46.57403 8.59885 30106 ft 421 kts 179°
2026-05-06 21:05 46.54486 8.60300 29565 ft 422 kts 179°
2026-05-06 21:06 46.51554 8.60715 28992 ft 424 kts 179°
2026-05-06 21:06 46.48608 8.61126 28453 ft 426 kts 179°
2026-05-06 21:06 46.45655 8.61176 27915 ft 424 kts 187°
2026-05-06 21:06 46.42763 8.60401 27426 ft 423 kts 198°
2026-05-06 21:07 46.40087 8.58784 26886 ft 425 kts 209°
2026-05-06 21:07 46.37549 8.56566 26430 ft 427 kts 212°
2026-05-06 21:07 46.35032 8.54257 25940 ft 430 kts 212°
2026-05-06 21:07 46.32501 8.51944 25460 ft 431 kts 212°
2026-05-06 21:08 46.29929 8.49838 24948 ft 418 kts 205°
2026-05-06 21:08 46.27228 8.48443 24475 ft 408 kts 195°
2026-05-06 21:08 46.24402 8.47827 24055 ft 417 kts 185°
2026-05-06 21:08 46.21500 8.47957 23580 ft 416 kts 177°
2026-05-06 21:09 46.18672 8.48380 22838 ft 413 kts 176°
2026-05-06 21:09 46.15819 8.48833 22116 ft 411 kts 176°
2026-05-06 21:09 46.12982 8.49267 21358 ft 410 kts 176°
2026-05-06 21:09 46.10186 8.50026 20619 ft 410 kts 167°
2026-05-06 21:10 46.07497 8.51363 19948 ft 408 kts 162°
2026-05-06 21:10 46.04852 8.52812 19277 ft 405 kts 162°
2026-05-06 21:10 46.02229 8.54254 18626 ft 402 kts 162°
2026-05-06 21:10 45.99627 8.55669 17872 ft 398 kts 162°
2026-05-06 21:11 45.97049 8.57062 17071 ft 394 kts 162°
2026-05-06 21:11 45.94528 8.58416 16371 ft 390 kts 162°
2026-05-06 21:11 45.91998 8.59773 15634 ft 386 kts 162°
2026-05-06 21:11 45.89522 8.61249 14884 ft 386 kts 154°
2026-05-06 21:12 45.87339 8.63509 14153 ft 388 kts 143°
2026-05-06 21:12 45.85285 8.65997 13419 ft 386 kts 142°
2026-05-06 21:12 45.83235 8.68457 12667 ft 383 kts 142°
2026-05-06 21:12 45.81184 8.70874 12149 ft 380 kts 143°
2026-05-06 21:13 45.79144 8.73254 11947 ft 376 kts 143°
2026-05-06 21:13 45.77154 8.75550 11339 ft 371 kts 144°
2026-05-06 21:13 45.74996 8.77548 10616 ft 369 kts 153°
2026-05-06 21:13 45.72740 8.79296 10008 ft 367 kts 154°
2026-05-06 21:14 45.70520 8.80987 9687 ft 356 kts 154°
2026-05-06 21:14 45.68376 8.82623 9466 ft 344 kts 154°
2026-05-06 21:14 45.66307 8.84205 9273 ft 331 kts 154°
2026-05-06 21:14 45.64319 8.85727 9104 ft 318 kts 154°
2026-05-06 21:15 45.62403 8.87181 8940 ft 306 kts 156°
2026-05-06 21:15 45.60469 8.88115 8789 ft 291 kts 170°
2026-05-06 21:15 45.58517 8.88647 8600 ft 281 kts 172°
2026-05-06 21:15 45.56604 8.89140 8266 ft 278 kts 171°
2026-05-06 21:16 45.54709 8.89635 7892 ft 276 kts 171°
2026-05-06 21:16 45.52825 8.90134 7515 ft 275 kts 171°
2026-05-06 21:16 45.50951 8.90636 7149 ft 273 kts 171°
2026-05-06 21:16 45.49087 8.91140 6788 ft 272 kts 171°
2026-05-06 21:17 45.47234 8.91643 6435 ft 270 kts 171°
2026-05-06 21:17 45.45422 8.92133 6052 ft 269 kts 170°
2026-05-06 21:17 45.43590 8.92629 5687 ft 267 kts 170°
2026-05-06 21:17 45.41771 8.93125 5348 ft 264 kts 171°
2026-05-06 21:18 45.39990 8.93107 5149 ft 252 kts 195°
2026-05-06 21:18 45.38492 8.91987 5009 ft 240 kts 223°
2026-05-06 21:18 45.37596 8.90071 4823 ft 233 kts 250°
2026-05-06 21:18 45.37334 8.87814 4511 ft 233 kts 269°
2026-05-06 21:19 45.37751 8.85583 4082 ft 240 kts 298°
2026-05-06 21:19 45.38885 8.83827 3707 ft 245 kts 320°
2026-05-06 21:19 45.40242 8.82417 3401 ft 244 kts 323°
2026-05-06 21:19 45.41624 8.81047 3107 ft 242 kts 323°
2026-05-06 21:20 45.43013 8.79663 2996 ft 244 kts 326°
2026-05-06 21:20 45.43995 8.78885 2990 ft 242 kts 335°
2026-05-06 21:20 45.46124 8.77916 3002 ft 241 kts 349°
2026-05-06 21:20 45.47751 8.77568 3001 ft 229 kts 346°
2026-05-06 21:21 45.49266 8.77149 2997 ft 219 kts 348°
2026-05-06 21:21 45.50757 8.76736 2935 ft 218 kts 348°
2026-05-06 21:21 45.52190 8.76339 2748 ft 206 kts 349°
2026-05-06 21:21 45.53579 8.75955 2471 ft 201 kts 351°
2026-05-06 21:22 45.54942 8.75579 2159 ft 198 kts 351°
2026-05-06 21:22 45.56237 8.75222 1912 ft 182 kts 352°
2026-05-06 21:22 45.57388 8.74904 1653 ft 157 kts 351°
2026-05-06 21:22 45.58385 8.74625 1329 ft 140 kts 350°
2026-05-06 21:23 45.59332 8.74363 1177 ft 139 kts 351°
2026-05-06 21:23 45.60266 8.74115 1060 ft 138 kts 350°
2026-05-06 21:23 45.61199 8.73858 878 ft 137 kts 349°
2026-05-06 21:23 45.62109 8.73601 745 ft 122 kts 349°
2026-05-06 21:24 45.62784 8.73417 745 ft 74 kts 349°
2026-05-06 21:24 45.63113 8.73281 742 ft 30 kts 328°
2026-05-06 21:24 45.63262 8.73070 746 ft 31 kts 303°
2026-05-06 21:24 45.63366 8.72846 746 ft 21 kts 303°
2026-05-06 21:25 45.63409 8.72664 746 ft 20 kts 264°
2026-05-06 21:25 45.63385 8.72473 746 ft 17 kts 258°
2026-05-06 21:25 45.63361 8.72302 746 ft 18 kts 258°
2026-05-06 21:25 45.63336 8.72119 745 ft 18 kts 260°
2026-05-06 21:26 45.63313 8.71993 746 ft 11 kts 234°
2026-05-06 21:26 45.63238 8.71979 746 ft 12 kts 169°
2026-05-06 21:26 45.63166 8.71999 745 ft 10 kts 169°
2026-05-06 21:26 45.63090 8.72019 746 ft 12 kts 169°
2026-05-06 21:27 45.63001 8.72044 746 ft 14 kts 168°
2026-05-06 21:27 45.62900 8.72073 745 ft 16 kts 168°
2026-05-06 21:27 45.62790 8.72103 744 ft 17 kts 169°
2026-05-06 21:27 45.62708 8.72123 746 ft 9 kts 180°
2026-05-06 21:28 45.62678 8.72046 745 ft 11 kts 261°
2026-05-06 21:28 45.62664 8.71930 746 ft 13 kts 259°
2026-05-06 21:28 45.62641 8.71849 746 ft 8 kts 212°
2026-05-06 21:28 45.62588 8.71847 744 ft 8 kts 168°
2026-05-06 21:29 45.62536 8.71861 746 ft 7 kts 169°
2026-05-06 21:29 45.62490 8.71873 745 ft 6 kts 176°
2026-05-06 21:29 45.62465 8.71830 746 ft 6 kts 256°
2026-05-06 21:29 45.62460 8.71793 746 ft 3 kts 259°
2026-05-06 21:30 45.62457 8.71774 746 ft 0 kts 259°
2026-05-06 21:36 45.62534 8.71525 744 ft 0 kts 169°
2026-05-06 21:37 45.62556 8.71671 745 ft 0 kts 169°
2026-05-06 21:38 45.63083 8.71584 743 ft 0 kts 259°